[[{"header":{"parameterUnit":"m.s-1","parameterCategory":2,"la1":30.2991,"la2":30.254,"lo1":-89.0895,"lo2":-89.0444,"dy":0.0017,"dx":0.0017,"nx":28,"ny":28,"refTime":"2023-08-15T21:00:00:Z","depth":"0","parameterNumber":2,"parameterNumberName":"U-component_of_CURRENTS"},"data":[0,0,0,0,0,0,0,0,0,0,0,0,0,0,0,0,0,0,0,0,0,0,0,0,0,0,0,0,0,0,0,0,0,0,0,0,0,0,0,0,0,0,0,0,0,0,0,0,0,0,0,0,0,0,0,0,0,0,0.1993,0.1994,0,0.2068,0.2069,0.2071,0.2046,0.2044,0.2042,0.204,0.209,0.2093,0.2097,0,0,0,0,0,0,0,0,0,0,0,0,0,0.1895,0.1897,0.1993,0.1994,0.1994,0.2068,0.2069,0.2071,0.2047,0.2044,0.2041,0.2038,0.2089,0.2093,0.2097,0,0,0,0,0,0,0,0,0,0,0,0,0,0.1958,0.1898,0.1993,0.1985,0.1985,0.2067,0.207,0.2072,0.2047,0.2044,0.204,0.2037,0.2088,0.2093,0.2098,0.2199,0,0,0.2114,0.2116,0,0,0,0,0,0,0,0,0.1954,0.1962,0.1986,0.1986,0.1985,0.2038,0.2053,0.211,0.2048,0.2031,0.2039,0.2035,0.2068,0.2075,0.2107,0.2201,0.2203,0.2114,0.2117,0.2119,0.2121,0,0,0,0,0,0,0,0.195,0.1959,0.203,0.1987,0.1986,0.2,0.2005,0.2065,0.2073,0.2032,0.2029,0.2027,0.2068,0.2102,0.2108,0.2204,0.2114,0.2119,0.2122,0.2124,0.2346,0.2348,0,0,0,0,0,0,0.1927,0.1955,0.2028,0.2032,0.1953,0.2003,0.201,0.203,0.2073,0.2074,0.203,0.2025,0.2095,0.2102,0.2109,0.2239,0.2119,0.2124,0.2127,0.2343,0.2346,0.2349,0,0,0,0,0,0,0.1925,0.1934,0.2025,0.1987,0.1999,0.2007,0.2032,0.2034,0.2071,0.207,0.2071,0.2063,0.2093,0.2102,0.218,0.224,0.2127,0.2131,0.234,0.2344,0.2348,0.2494,0,0,0,0,0,0,0.1922,0.1933,0.1971,0.1987,0.2,0.21,0.2034,0.2037,0.207,0.2066,0.21,0.21,0.2091,0.2173,0.2185,0.2245,0.2135,0.2336,0.2342,0.2347,0.2485,0.2502,0.2517,0,0,0,0,0,0.1919,0.1996,0.1973,0.1982,0.2042,0.2102,0.2114,0.2111,0.2075,0.2126,0.2135,0.2099,0.2212,0.2181,0.2195,0.2257,0.2334,0.234,0.2346,0.2478,0.2499,0.2516,0,0,0,0,0,0,0.2018,0.2,0.1976,0.2054,0.2077,0.2095,0.2152,0.2132,0.2184,0.2174,0.2159,0.2165,0.2255,0.224,0.2205,0.2332,0.226,0.2269,0.2355,0.2375,0.239,0.243,0.214,0,0,0,0,0,0.2043,0.2074,0.2068,0.214,0.2149,0.215,0.218,0.2168,0.2196,0.2214,0.2221,0.2239,0.2298,0.2319,0.2362,0.245,0.2475,0.2489,0.2505,0.2518,0.2559,0.265,0.2678,0.237,0.237,0.237,0,0,0.2104,0.2099,0.2121,0.2158,0.2177,0.2227,0.2164,0.2218,0.2263,0.2216,0.2295,0.231,0.2336,0.2428,0.2463,0.2419,0.2622,0.2526,0.2538,0.2572,0.2659,0.269,0.2717,0.2374,0.2373,0.2373,0,0,0.2222,0.2234,0.228,0.2303,0.2315,0.2316,0.2329,0.2341,0.2353,0.2429,0.2405,0.2468,0.2527,0.2569,0.2598,0.2734,0.2711,0.2716,0.2828,0.2915,0.2941,0.2965,0.3048,0.3078,0.2712,0.2713,0.2713,0,0.229,0.2331,0.2317,0.2368,0.2387,0.2355,0.241,0.2451,0.2483,0.2506,0.2467,0.2591,0.2611,0.2744,0.2786,0.2778,0.2808,0.2754,0.2938,0.2962,0.2984,0.3063,0.3095,0.272,0.272,0.2719,0.2718,0,0.2404,0.2453,0.2498,0.2522,0.2569,0.2614,0.2627,0.2669,0.2656,0.267,0.2776,0.2816,0.2875,0.2895,0.2894,0.3053,0.302,0.2957,0.2894,0.3025,0.3099,0.3129,0.2732,0.2729,0.2727,0.2725,0,0,0.246,0.2548,0.2553,0.2566,0.2628,0.2654,0.2765,0.282,0.2856,0.2916,0.2986,0.3118,0.3101,0.3135,0.313,0.3219,0.3411,0.3161,0.3162,0.3253,0.3609,0.3603,0.3634,0.3368,0.3374,0.3378,0.3602,0,0.2522,0.2611,0.2655,0.2743,0.2771,0.2803,0.2891,0.2952,0.2988,0.3053,0.3129,0.3197,0.32,0.3214,0.3325,0.3374,0.3495,0.3357,0.3462,0.3467,0.3453,0.3671,0.3604,0.38,0.3631,0.3636,0.364,0,0.2558,0.2604,0.2693,0.277,0.2787,0.2849,0.292,0.2998,0.3119,0.3149,0.3262,0.3296,0.3471,0.3414,0.3655,0.3557,0.3626,0.367,0.3677,0.3649,0.3519,0.3639,0.386,0.3737,0.3686,0.3682,0.3679,0,0.2487,0.2606,0.2654,0.2686,0.2798,0.2842,0.2895,0.3012,0.3062,0.3203,0.3244,0.3437,0.3503,0.3659,0.378,0.3722,0.4014,0.3923,0.4006,0.4003,0.3962,0.3947,0.4089,0.4133,0.4132,0.4132,0.4131,0,0.2479,0.2505,0.261,0.2631,0.2675,0.2776,0.284,0.2922,0.3046,0.3123,0.3267,0.3362,0.3566,0.3736,0.3848,0.4048,0.408,0.4111,0.4096,0.4009,0.3997,0.3893,0.3825,0.414,0.4138,0.4136,0.4135,0,0.2387,0.2462,0.2505,0.2615,0.2641,0.2661,0.2779,0.2831,0.2952,0.3063,0.3113,0.3338,0.3575,0.378,0.4031,0.4116,0.421,0.4348,0.424,0.4211,0.4157,0.41,0.4121,0.3999,0.4509,0.4511,0.4512,0,0.2351,0.2365,0.2457,0.2482,0.2528,0.2581,0.2628,0.2758,0.2825,0.3045,0.3095,0.3357,0.3539,0.3927,0.4162,0.4427,0.4262,0.448,0.4382,0.4232,0.4157,0.3945,0.3822,0.4387,0.4388,0.4388,0.4388,0,0.2278,0.2304,0.2348,0.24,0.244,0.2485,0.2564,0.2597,0.2769,0.2878,0.3058,0.3225,0.3629,0.3894,0.4246,0.4399,0.4283,0.4492,0.4376,0.4156,0.3899,0.3743,0.4142,0.439,0.439,0.439,0.439,0.439,0.2216,0.222,0.2286,0.2324,0.236,0.2391,0.2412,0.2519,0.2613,0.2783,0.2967,0.3204,0.3614,0.4117,0.4251,0.4426,0.4311,0.436,0.4334,0.4153,0.3955,0.4373,0.4559,0.4559,0.456,0.4561,0.4561,0,0.2172,0.2187,0.2219,0.2262,0.2263,0.2314,0.2377,0.2407,0.2497,0.2692,0.2859,0.3283,0.3598,0.3936,0.4289,0.4269,0.4095,0.4172,0.386,0.3766,0.4209,0.4121,0.417,0.417,0.417,0.417,0.417,0.417,0.2158,0.2166,0.2184,0.2166,0.2181,0.2172,0.219,0.226,0.2386,0.2601,0.2822,0.3033,0.3484,0.3916,0.4079,0.4058,0.3768,0.3675,0.3568,0.3887,0.3899,0.3911,0.3811,0.3795,0.3794,0.298,0.2975,0.297]},{"header":{"parameterUnit":"m.s-1","parameterCategory":2,"la1":30.2991,"la2":30.254,"lo1":-89.0895,"lo2":-89.0444,"dy":0.0017,"dx":0.0017,"nx":28,"ny":28,"refTime":"2023-08-15T21:00:00:Z","depth":"0","parameterNumber":3,"parameterNumberName":"V-component_of_CURRENTS"},"data":[0,0,0,0,0,0,0,0,0,0,0,0,0,0,0,0,0,0,0,0,0,0,0,0,0,0,0,0,0,0,0,0,0,0,0,0,0,0,0,0,0,0,0,0,0,0,0,0,0,0,0,0,0,0,0,0,0,0,0.0967,0.0967,0,0.0938,0.0937,0.0937,0.0893,0.0892,0.0892,0.0891,0.0809,0.0808,0.0806,0,0,0,0,0,0,0,0,0,0,0,0,0,0.0993,0.0993,0.0967,0.0967,0.0966,0.0938,0.0937,0.0937,0.0894,0.0892,0.0891,0.089,0.0809,0.0808,0.0806,0,0,0,0,0,0,0,0,0,0,0,0,0,0.0976,0.0992,0.0967,0.094,0.0937,0.0938,0.0937,0.0937,0.0894,0.0892,0.0891,0.089,0.081,0.0808,0.0806,0.0821,0,0,0.08,0.0799,0,0,0,0,0,0,0,0,0.0977,0.0975,0.0944,0.0942,0.0939,0.0916,0.0916,0.0895,0.0894,0.0912,0.0891,0.0889,0.084,0.0836,0.0836,0.0817,0.0814,0.08,0.0799,0.0798,0.0797,0,0,0,0,0,0,0,0.0978,0.0976,0.0957,0.0944,0.094,0.0931,0.0927,0.0912,0.0884,0.091,0.0907,0.0901,0.0838,0.0838,0.0834,0.0813,0.08,0.0798,0.0797,0.0796,0.0772,0.0772,0,0,0,0,0,0,0.098,0.0977,0.0958,0.0956,0.0953,0.0932,0.0927,0.0926,0.0885,0.0878,0.0902,0.0899,0.0842,0.0836,0.083,0.0864,0.0798,0.0796,0.0795,0.0771,0.0772,0.0772,0,0,0,0,0,0,0.098,0.0979,0.0959,0.0964,0.0961,0.0932,0.0931,0.0926,0.0931,0.088,0.0871,0.0912,0.0841,0.0833,0.0827,0.0859,0.0795,0.0793,0.0771,0.0771,0.0772,0.0919,0,0,0,0,0,0,0.0981,0.0979,0.0993,0.0965,0.0961,0.0983,0.0932,0.0927,0.0928,0.0924,0.0886,0.0876,0.0839,0.083,0.0825,0.0856,0.0792,0.077,0.0771,0.0772,0.0914,0.0925,0.0934,0,0,0,0,0,0.0983,0.1016,0.0995,0.0993,0.0977,0.0985,0.0984,0.0958,0.0931,0.0954,0.0915,0.0878,0.0832,0.083,0.0823,0.0854,0.0769,0.0771,0.0772,0.0909,0.0923,0.0934,0,0,0,0,0,0,0.1062,0.1014,0.0989,0.1014,0.1005,0.0977,0.0996,0.0972,0.0961,0.0951,0.0896,0.0886,0.089,0.0848,0.0846,0.0844,0.079,0.079,0.0896,0.0909,0.0919,0.0946,0.079,0,0,0,0,0,0.1078,0.1074,0.1042,0.1065,0.106,0.1028,0.103,0.101,0.0989,0.0984,0.0948,0.0908,0.0891,0.0881,0.0855,0.0864,0.0816,0.0872,0.0883,0.0892,0.0906,0.0862,0.0871,0.0776,0.0776,0.0776,0,0,0.1118,0.109,0.1092,0.1079,0.1065,0.1082,0.1027,0.1039,0.1051,0.0976,0.0985,0.0949,0.0901,0.0909,0.0906,0.0879,0.0893,0.0894,0.0903,0.0912,0.0864,0.0874,0.0882,0.0777,0.0777,0.0777,0,0,0.1195,0.1168,0.1188,0.1181,0.1161,0.1138,0.1144,0.1117,0.1104,0.1109,0.1055,0.1044,0.1008,0.0989,0.0973,0.1024,0.0951,0.1003,0.1084,0.1042,0.105,0.1056,0.1014,0.1015,0.1008,0.1008,0.1008,0,0.1248,0.1254,0.1206,0.1226,0.1224,0.1167,0.12,0.1189,0.1163,0.1161,0.1126,0.109,0.1051,0.1069,0.1084,0.1054,0.1008,0.1049,0.1059,0.1064,0.1068,0.1022,0.1022,0.1015,0.1015,0.1014,0.1013,0,0.1319,0.1337,0.1355,0.1342,0.1347,0.1363,0.133,0.1331,0.1296,0.1277,0.128,0.1232,0.1208,0.1196,0.116,0.1176,0.1127,0.1081,0.1037,0.1087,0.1035,0.1032,0.1026,0.1023,0.1021,0.1019,0,0,0.1393,0.14,0.1402,0.1411,0.1397,0.1402,0.1431,0.1431,0.1441,0.1417,0.1436,0.1414,0.1377,0.1355,0.1306,0.1277,0.1272,0.12,0.1195,0.1177,0.1174,0.1132,0.1123,0.1223,0.1223,0.1223,0.1129,0,0.1456,0.1499,0.1492,0.1544,0.1559,0.1528,0.1555,0.1551,0.1531,0.1535,0.1498,0.1493,0.1439,0.1427,0.1399,0.1306,0.1269,0.1301,0.1111,0.1106,0.1077,0.1121,0.1101,0.1014,0.1126,0.1125,0.1125,0,0.1511,0.1524,0.1576,0.1609,0.1614,0.1644,0.1647,0.1669,0.1671,0.1656,0.1658,0.1615,0.1603,0.1526,0.1419,0.1438,0.1322,0.124,0.1233,0.1142,0.1059,0.0977,0.1004,0.0773,0.1119,0.112,0.112,0,0.1527,0.1583,0.1612,0.1619,0.1651,0.1678,0.1695,0.1706,0.1721,0.1733,0.1742,0.1716,0.1691,0.1577,0.1427,0.1415,0.1281,0.1233,0.1085,0.108,0.1001,0.0989,0.0798,0.1135,0.1135,0.1135,0.1136,0,0.1571,0.1602,0.1619,0.1634,0.1677,0.1699,0.1749,0.1761,0.1791,0.1822,0.1802,0.1813,0.1696,0.1609,0.1462,0.1281,0.1303,0.1114,0.106,0.105,0.1044,0.0787,0.0665,0.1132,0.1132,0.1133,0.1134,0,0.1598,0.1605,0.1639,0.1671,0.1688,0.1714,0.178,0.1815,0.184,0.188,0.189,0.1878,0.1793,0.1656,0.1468,0.1318,0.1011,0.106,0.1064,0.1013,0.0678,0.0566,0.0354,0.0224,0.0903,0.0902,0.09,0,0.1612,0.163,0.1651,0.167,0.1693,0.174,0.1781,0.1826,0.1868,0.1914,0.1937,0.1895,0.188,0.1625,0.1378,0.1138,0.0936,0.0914,0.0891,0.0668,0.0503,0.0453,0.0355,0.0838,0.0836,0.0835,0.0834,0,0.1638,0.1635,0.1651,0.169,0.1727,0.1775,0.1841,0.1877,0.1933,0.1976,0.2011,0.2013,0.1818,0.1599,0.1289,0.1109,0.0748,0.0877,0.0639,0.044,0.0379,0.0225,0.0886,0.0822,0.0823,0.0824,0.0825,0.0825,0.1644,0.1649,0.1665,0.1703,0.1746,0.1801,0.1845,0.192,0.1985,0.206,0.2068,0.2108,0.1822,0.1434,0.1124,0.0597,0.0623,0.0422,0.0307,0.0279,0.0149,0.0791,0.0669,0.0669,0.067,0.067,0.067,0,0.165,0.1659,0.169,0.1722,0.1763,0.1793,0.1878,0.1927,0.2004,0.2111,0.2162,0.2113,0.1655,0.123,0.0548,0.0106,-0.003,-0.0131,-0.0227,-0.03,0.0257,0.0247,0.0037,0.0037,0.0037,0.0038,0.0038,0.0038,0.1654,0.1668,0.1676,0.1719,0.175,0.1806,0.1847,0.1937,0.2038,0.2178,0.227,0.235,0.2075,0.0761,-0.0201,-0.0424,-0.0743,-0.0792,-0.0967,-0.0614,-0.0571,-0.0531,-0.057,-0.0947,-0.0948,-0.1467,-0.1472,-0.1476]}],[{"header":{"parameterUnit":"m.s-1","parameterCategory":2,"la1":30.2991,"la2":30.254,"lo1":-89.0895,"lo2":-89.0444,"dy":0.0017,"dx":0.0017,"nx":28,"ny":28,"refTime":"2023-08-15T21:00:00:Z","depth":"2","parameterNumber":2,"parameterNumberName":"U-component_of_CURRENTS"},"data":[0,0,0,0,0,0,0,0,0,0,0,0,0,0,0,0,0,0,0,0,0,0,0,0,0,0,0,0,0,0,0,0,0,0,0,0,0,0,0,0,0,0,0,0,0,0,0,0,0,0,0,0,0,0,0,0,0,0,0.0438,0.0439,0,0.0504,0.0505,0.0506,0.0531,0.053,0.053,0.053,0.057,0.0571,0.0572,0,0,0,0,0,0,0,0,0,0,0,0,0,0.0344,0.0345,0.0438,0.0439,0.044,0.0504,0.0505,0.0506,0.0531,0.053,0.053,0.053,0.057,0.0571,0.0572,0,0,0,0,0,0,0,0,0,0,0,0,0,0.0394,0.0346,0.0438,0.046,0.0463,0.0504,0.0505,0.0506,0.0531,0.053,0.053,0.053,0.0569,0.0571,0.0573,0.0588,0,0,0.0578,0.0579,0,0,0,0,0,0,0,0,0.0391,0.0398,0.0456,0.0459,0.0462,0.051,0.0487,0.0532,0.0531,0.0504,0.053,0.053,0.0548,0.0551,0.0564,0.059,0.0592,0.0578,0.0579,0.058,0.0581,0,0,0,0,0,0,0,0.0388,0.0395,0.0463,0.0457,0.0461,0.0471,0.0478,0.0496,0.0525,0.0507,0.0509,0.0517,0.0549,0.0562,0.0565,0.0592,0.0578,0.058,0.0581,0.0582,0.0703,0.0705,0,0,0,0,0,0,0.0381,0.0392,0.0461,0.0465,0.0426,0.0473,0.048,0.0494,0.0526,0.0531,0.0517,0.0518,0.0559,0.0563,0.0566,0.0654,0.058,0.0582,0.0583,0.07,0.0703,0.0705,0,0,0,0,0,0,0.0379,0.0387,0.0459,0.043,0.044,0.0475,0.049,0.0495,0.0519,0.0535,0.0539,0.0536,0.0559,0.0564,0.0602,0.0653,0.0583,0.0584,0.0698,0.0701,0.0704,0.0787,0,0,0,0,0,0,0.0376,0.0386,0.0393,0.043,0.0442,0.0495,0.049,0.0497,0.0524,0.0526,0.0552,0.0555,0.0559,0.0599,0.0603,0.0654,0.0586,0.0695,0.0699,0.0703,0.0781,0.0792,0.0802,0,0,0,0,0,0.0372,0.0385,0.0394,0.0402,0.0451,0.0496,0.0503,0.0526,0.0525,0.0544,0.0565,0.0555,0.0628,0.0602,0.0607,0.0659,0.0693,0.0698,0.0703,0.0777,0.079,0.0801,0,0,0,0,0,0,0.0345,0.039,0.04,0.0424,0.0462,0.05,0.0517,0.0533,0.0564,0.0567,0.0575,0.0581,0.0635,0.0634,0.0605,0.0707,0.0662,0.0668,0.0717,0.0729,0.0739,0.0744,0.0587,0,0,0,0,0,0.0343,0.0367,0.041,0.0431,0.045,0.0485,0.0505,0.0527,0.0558,0.0572,0.0598,0.0625,0.0659,0.068,0.0704,0.0756,0.077,0.0795,0.0805,0.0814,0.0822,0.0889,0.0906,0.0721,0.0721,0.0721,0,0,0.0335,0.0365,0.0377,0.0427,0.0456,0.05,0.0497,0.0537,0.0581,0.0571,0.0638,0.0658,0.0678,0.0741,0.0766,0.0747,0.0878,0.082,0.0827,0.0831,0.0896,0.0914,0.093,0.0724,0.0724,0.0723,0,0,0.0343,0.0363,0.0392,0.0429,0.0481,0.051,0.0525,0.0581,0.0612,0.0675,0.0684,0.0735,0.0785,0.0822,0.0841,0.0921,0.0925,0.0932,0.0997,0.1062,0.1078,0.1092,0.1147,0.1165,0.0944,0.0944,0.0944,0,0.0331,0.0381,0.0406,0.045,0.0487,0.0519,0.0567,0.0606,0.0671,0.0711,0.0706,0.0814,0.0829,0.0913,0.0947,0.0946,0.0978,0.0947,0.1076,0.109,0.1103,0.1156,0.1175,0.0949,0.0948,0.0948,0.0947,0,0.037,0.0413,0.0434,0.0504,0.0544,0.0591,0.0649,0.07,0.0742,0.079,0.0885,0.0917,0.0985,0.1005,0.1002,0.1109,0.1102,0.1076,0.1044,0.1127,0.1177,0.1196,0.0955,0.0954,0.0952,0.0951,0,0,0.0347,0.0443,0.0454,0.05,0.0581,0.0621,0.0697,0.0785,0.0847,0.0918,0.1006,0.108,0.1107,0.1131,0.1145,0.1203,0.1326,0.1188,0.1189,0.1241,0.1478,0.1409,0.1422,0.1328,0.1331,0.1334,0.1481,0,0.0377,0.0464,0.051,0.0599,0.0651,0.0709,0.0779,0.0859,0.093,0.1022,0.108,0.1161,0.1152,0.1195,0.1259,0.1304,0.1376,0.1288,0.139,0.1394,0.1321,0.1441,0.1311,0.1425,0.1498,0.1501,0.1503,0,0.0412,0.0471,0.0558,0.0664,0.0692,0.0752,0.0874,0.0943,0.1063,0.1119,0.1214,0.1252,0.1362,0.1327,0.1476,0.1424,0.1467,0.1494,0.15,0.1417,0.1359,0.1352,0.1455,0.1534,0.1531,0.1529,0.1527,0,0.0397,0.0508,0.0581,0.0617,0.0735,0.0794,0.0866,0.0983,0.1049,0.1189,0.1249,0.1372,0.1443,0.1521,0.1583,0.1549,0.1727,0.1681,0.1663,0.1658,0.1556,0.1536,0.1793,0.1793,0.1793,0.1792,0.1792,0,0.0417,0.0476,0.0585,0.0626,0.0717,0.0805,0.091,0.0995,0.1119,0.1206,0.1302,0.1381,0.1498,0.1597,0.1638,0.1718,0.1783,0.1705,0.1704,0.1581,0.1562,0.1648,0.1629,0.1798,0.1797,0.1796,0.1795,0,0.039,0.0459,0.0543,0.067,0.0711,0.078,0.0915,0.0988,0.1114,0.1228,0.1274,0.1429,0.1569,0.1663,0.1801,0.1787,0.186,0.1865,0.1706,0.1683,0.1734,0.1717,0.1877,0.1876,0.1875,0.1875,0.1874,0,0.0382,0.0423,0.055,0.0593,0.0655,0.0761,0.0828,0.0968,0.1041,0.1242,0.1289,0.1467,0.1569,0.1749,0.1773,0.1856,0.1891,0.1765,0.1664,0.1766,0.175,0.1735,0.172,0.1577,0.1574,0.1572,0.157,0,0.0355,0.0401,0.0464,0.056,0.0635,0.0715,0.0828,0.0877,0.1043,0.1139,0.1292,0.1395,0.1573,0.1624,0.1723,0.1721,0.1737,0.1715,0.1912,0.1551,0.1488,0.1469,0.1464,0.1548,0.155,0.1552,0.1553,0.1554,0.0315,0.0348,0.0431,0.0523,0.0599,0.0675,0.0722,0.0829,0.0927,0.1087,0.1213,0.1343,0.1443,0.1521,0.154,0.1544,0.1622,0.157,0.1576,0.1585,0.15,0.1436,0.1472,0.1473,0.1475,0.1476,0.1477,0,0.0263,0.0321,0.0391,0.0489,0.0552,0.0627,0.0719,0.0756,0.0839,0.1006,0.1135,0.1126,0.1216,0.1336,0.1318,0.1329,0.1283,0.1291,0.1252,0.1273,0.1292,0.1191,0.1082,0.1081,0.108,0.1079,0,0,0.0232,0.0278,0.0331,0.0422,0.0501,0.0567,0.061,0.0669,0.0767,0.0861,0.095,0.1114,0.1246,0.113,0.1149,0.1141,0.1179,0.1079,0.1392,0.1363,0.138,0.1448,0.1314,0,0,0,0,0]},{"header":{"parameterUnit":"m.s-1","parameterCategory":2,"la1":30.2991,"la2":30.254,"lo1":-89.0895,"lo2":-89.0444,"dy":0.0017,"dx":0.0017,"nx":28,"ny":28,"refTime":"2023-08-15T21:00:00:Z","depth":"2","parameterNumber":3,"parameterNumberName":"V-component_of_CURRENTS"},"data":[0,0,0,0,0,0,0,0,0,0,0,0,0,0,0,0,0,0,0,0,0,0,0,0,0,0,0,0,0,0,0,0,0,0,0,0,0,0,0,0,0,0,0,0,0,0,0,0,0,0,0,0,0,0,0,0,0,0,-0.0812,-0.0812,0,-0.0748,-0.0748,-0.0747,-0.0719,-0.0719,-0.0719,-0.0719,-0.068,-0.0679,-0.0678,0,0,0,0,0,0,0,0,0,0,0,0,0,-0.0872,-0.0871,-0.0813,-0.0812,-0.0811,-0.0748,-0.0748,-0.0747,-0.0719,-0.0719,-0.0719,-0.0719,-0.068,-0.0679,-0.0678,0,0,0,0,0,0,0,0,0,0,0,0,0,-0.0832,-0.0871,-0.0813,-0.0788,-0.0785,-0.0749,-0.0748,-0.0747,-0.0719,-0.0719,-0.0719,-0.0719,-0.068,-0.0679,-0.0678,-0.0671,0,0,-0.0673,-0.0672,0,0,0,0,0,0,0,0,-0.0835,-0.0831,-0.0792,-0.0789,-0.0786,-0.074,-0.0754,-0.0722,-0.0719,-0.0746,-0.0719,-0.0719,-0.0701,-0.0698,-0.0688,-0.0669,-0.0667,-0.0673,-0.0672,-0.0671,-0.0671,0,0,0,0,0,0,0,-0.0838,-0.0833,-0.0789,-0.0791,-0.0787,-0.0766,-0.0761,-0.0748,-0.0727,-0.0743,-0.0741,-0.0731,-0.07,-0.069,-0.0687,-0.0667,-0.0673,-0.0672,-0.0671,-0.067,-0.066,-0.0661,0,0,0,0,0,0,-0.0844,-0.0836,-0.0791,-0.0787,-0.0809,-0.0765,-0.076,-0.0756,-0.0726,-0.0721,-0.0731,-0.073,-0.0692,-0.0689,-0.0686,-0.0673,-0.0671,-0.067,-0.0669,-0.066,-0.066,-0.0661,0,0,0,0,0,0,-0.0846,-0.0841,-0.0793,-0.0808,-0.08,-0.0765,-0.0761,-0.0755,-0.0731,-0.0716,-0.0712,-0.0711,-0.0692,-0.0688,-0.0673,-0.0672,-0.0669,-0.0668,-0.0659,-0.066,-0.0661,-0.065,0,0,0,0,0,0,-0.0848,-0.0842,-0.0828,-0.0809,-0.08,-0.076,-0.0761,-0.0754,-0.0725,-0.0723,-0.0698,-0.0695,-0.0692,-0.0675,-0.0672,-0.067,-0.0667,-0.0658,-0.0659,-0.0661,-0.065,-0.0651,-0.0652,0,0,0,0,0,-0.085,-0.0832,-0.0828,-0.0822,-0.0787,-0.0759,-0.0752,-0.0728,-0.0724,-0.0708,-0.0703,-0.0695,-0.0681,-0.0674,-0.067,-0.0667,-0.0658,-0.0659,-0.066,-0.065,-0.0651,-0.0652,0,0,0,0,0,0,-0.0843,-0.0827,-0.0822,-0.0798,-0.0776,-0.0754,-0.073,-0.072,-0.0701,-0.0698,-0.0693,-0.0689,-0.068,-0.0677,-0.0671,-0.0672,-0.0672,-0.0672,-0.0665,-0.0666,-0.0667,-0.0645,-0.0666,0,0,0,0,0,-0.0838,-0.0823,-0.0806,-0.0783,-0.0773,-0.0751,-0.0733,-0.0719,-0.0704,-0.0694,-0.0683,-0.0681,-0.0685,-0.0676,-0.0675,-0.0664,-0.0661,-0.0666,-0.0667,-0.0667,-0.0649,-0.0658,-0.0657,-0.0666,-0.0666,-0.0666,0,0,-0.0824,-0.0816,-0.0803,-0.078,-0.0762,-0.0743,-0.074,-0.0708,-0.0691,-0.0694,-0.0668,-0.0678,-0.0684,-0.0681,-0.0677,-0.0674,-0.0665,-0.0669,-0.0669,-0.065,-0.0659,-0.0658,-0.0657,-0.0667,-0.0666,-0.0666,0,0,-0.0796,-0.0788,-0.0767,-0.0752,-0.0725,-0.0719,-0.0709,-0.0686,-0.0673,-0.0655,-0.0666,-0.067,-0.0662,-0.067,-0.0675,-0.0678,-0.0672,-0.0685,-0.0662,-0.0672,-0.0671,-0.0669,-0.0668,-0.0667,-0.0682,-0.0682,-0.0682,0,-0.0774,-0.0754,-0.0753,-0.0733,-0.0711,-0.071,-0.0681,-0.0674,-0.0648,-0.0635,-0.0645,-0.0647,-0.0658,-0.0657,-0.0669,-0.0677,-0.0677,-0.0656,-0.0671,-0.067,-0.0669,-0.0668,-0.0666,-0.0682,-0.0682,-0.0682,-0.0682,0,-0.074,-0.0715,-0.0701,-0.0683,-0.0665,-0.0637,-0.0633,-0.0617,-0.0613,-0.0607,-0.0599,-0.0621,-0.0618,-0.0638,-0.0653,-0.0656,-0.0657,-0.0673,-0.0663,-0.0667,-0.0666,-0.0665,-0.0681,-0.0681,-0.0681,-0.0681,0,0,-0.0701,-0.0679,-0.067,-0.0645,-0.0633,-0.0608,-0.0596,-0.0572,-0.0543,-0.0555,-0.0523,-0.0564,-0.0573,-0.0581,-0.0607,-0.0623,-0.0632,-0.0642,-0.0643,-0.063,-0.0642,-0.0657,-0.0657,-0.065,-0.065,-0.065,-0.0645,0,-0.0664,-0.0615,-0.062,-0.0566,-0.0536,-0.0538,-0.0516,-0.05,-0.0497,-0.0472,-0.0509,-0.0496,-0.0554,-0.0549,-0.0579,-0.0611,-0.0627,-0.0631,-0.0648,-0.0648,-0.0653,-0.0656,-0.0646,-0.0643,-0.0644,-0.0644,-0.0644,0,-0.0623,-0.0595,-0.0537,-0.0489,-0.0475,-0.0447,-0.0402,-0.0384,-0.0374,-0.037,-0.0384,-0.0407,-0.0436,-0.0483,-0.0542,-0.054,-0.0586,-0.062,-0.0621,-0.0632,-0.0661,-0.064,-0.064,-0.0642,-0.0642,-0.0642,-0.0642,0,-0.0582,-0.0531,-0.048,-0.0464,-0.0422,-0.0387,-0.0362,-0.0341,-0.0307,-0.0301,-0.0275,-0.0324,-0.0322,-0.04,-0.0484,-0.051,-0.0538,-0.0584,-0.0639,-0.064,-0.0632,-0.0633,-0.0619,-0.0619,-0.0619,-0.0619,-0.0619,0,-0.0539,-0.0489,-0.0448,-0.0415,-0.0336,-0.0327,-0.0249,-0.0236,-0.0203,-0.015,-0.0213,-0.0183,-0.03,-0.0338,-0.044,-0.0525,-0.0507,-0.0624,-0.0639,-0.063,-0.0631,-0.063,-0.0631,-0.0619,-0.0619,-0.0619,-0.0619,0,-0.0489,-0.0471,-0.0397,-0.0337,-0.0312,-0.0248,-0.0171,-0.0117,-0.0101,-0.0035,-0.0027,-0.0061,-0.0118,-0.0233,-0.0338,-0.0447,-0.054,-0.0573,-0.0549,-0.0563,-0.0649,-0.065,-0.0645,-0.0645,-0.0646,-0.0646,-0.0646,0,-0.0459,-0.0419,-0.0331,-0.0277,-0.024,-0.0157,-0.0095,-0.0064,-0.0011,0.0042,0.0083,0.0054,0.002,-0.0139,-0.0318,-0.0485,-0.0507,-0.0578,-0.0641,-0.0635,-0.0651,-0.0651,-0.0652,-0.0625,-0.0625,-0.0625,-0.0625,0,-0.0394,-0.0359,-0.0298,-0.0193,-0.0115,-0.0033,0.0052,0.0104,0.0146,0.0188,0.0242,0.0218,0.0068,-0.0109,-0.0333,-0.0448,-0.056,-0.0586,-0.057,-0.0626,-0.0618,-0.0633,-0.0634,-0.0626,-0.0626,-0.0626,-0.0626,-0.0626,-0.0334,-0.0275,-0.0196,-0.0093,-0.0004,0.009,0.0164,0.0235,0.031,0.0374,0.0343,0.0313,0.0089,-0.0208,-0.0382,-0.0542,-0.057,-0.0649,-0.0648,-0.0647,-0.0652,-0.0646,-0.0659,-0.0659,-0.0659,-0.0659,-0.0659,0,-0.0261,-0.0196,-0.01,0.0017,0.0119,0.016,0.0267,0.0317,0.041,0.0436,0.0453,0.0244,0.0032,-0.0166,-0.0424,-0.0619,-0.0626,-0.0648,-0.0629,-0.0629,-0.0628,-0.0631,-0.0633,-0.0633,-0.0633,-0.0633,0,0,-0.0219,-0.0122,-0.0077,0.0099,0.0199,0.0335,0.0406,0.0454,0.0478,0.0485,0.0469,0.0355,0.0074,-0.0114,-0.0363,-0.048,-0.0502,-0.0497,-0.0508,-0.0459,-0.0455,-0.0629,-0.0633,0,0,0,0,0]}],[{"header":{"parameterUnit":"m.s-1","parameterCategory":2,"la1":30.2991,"la2":30.254,"lo1":-89.0895,"lo2":-89.0444,"dy":0.0017,"dx":0.0017,"nx":28,"ny":28,"refTime":"2023-08-15T21:00:00:Z","depth":"4","parameterNumber":2,"parameterNumberName":"U-component_of_CURRENTS"},"data":[0,0,0,0,0,0,0,0,0,0,0,0,0,0,0,0,0,0,0,0,0,0,0,0,0,0,0,0,0,0,0,0,0,0,0,0,0,0,0,0,0,0,0,0,0,0,0,0,0,0,0,0,0,0,0,0,0,0,0.0471,0.0471,0,0.0488,0.0488,0.0488,0.0502,0.0503,0.0503,0.0504,0.0511,0.0511,0.0511,0,0,0,0,0,0,0,0,0,0,0,0,0,0.0435,0.0435,0.0471,0.0471,0.0472,0.0488,0.0488,0.0488,0.0502,0.0503,0.0503,0.0504,0.0511,0.0511,0.0511,0,0,0,0,0,0,0,0,0,0,0,0,0,0.0448,0.0435,0.0471,0.0483,0.0485,0.0488,0.0488,0.0488,0.0502,0.0503,0.0504,0.0504,0.0511,0.0511,0.0511,0.0496,0,0,0.051,0.051,0,0,0,0,0,0,0,0,0.0447,0.0449,0.0481,0.0482,0.0484,0.0497,0.0478,0.0491,0.0502,0.0492,0.0504,0.0505,0.0507,0.0507,0.0505,0.0496,0.0496,0.051,0.051,0.051,0.0509,0,0,0,0,0,0,0,0.0446,0.0448,0.0474,0.0481,0.0483,0.0483,0.0485,0.0481,0.0493,0.0493,0.0495,0.0502,0.0507,0.0505,0.0505,0.0497,0.051,0.051,0.0509,0.0509,0.0513,0.0513,0,0,0,0,0,0,0.045,0.0447,0.0474,0.0475,0.047,0.0483,0.0486,0.0489,0.0493,0.0496,0.0501,0.0502,0.0505,0.0505,0.0505,0.0531,0.051,0.0509,0.0509,0.0512,0.0513,0.0513,0,0,0,0,0,0,0.045,0.0452,0.0473,0.0464,0.0467,0.0484,0.0487,0.0489,0.05,0.05,0.0502,0.0512,0.0506,0.0506,0.0515,0.053,0.0509,0.0509,0.0512,0.0513,0.0513,0.0555,0,0,0,0,0,0,0.0448,0.0452,0.0456,0.0465,0.0468,0.0482,0.0487,0.0489,0.0504,0.0506,0.0509,0.051,0.0506,0.0516,0.0515,0.0529,0.0509,0.0512,0.0512,0.0513,0.0554,0.0557,0.056,0,0,0,0,0,0.0447,0.0453,0.0456,0.0459,0.0473,0.0483,0.0484,0.0496,0.0504,0.0507,0.0515,0.0511,0.0518,0.0516,0.0515,0.0529,0.0512,0.0512,0.0513,0.0552,0.0556,0.056,0,0,0,0,0,0,0.0441,0.0455,0.0459,0.0469,0.0478,0.0487,0.0496,0.0501,0.0509,0.0517,0.0514,0.0515,0.0528,0.0519,0.0517,0.0531,0.0514,0.0514,0.0544,0.0548,0.0551,0.0553,0.0508,0,0,0,0,0,0.0441,0.0449,0.0461,0.0469,0.0477,0.0487,0.0494,0.0502,0.0511,0.0516,0.0524,0.0527,0.0526,0.0531,0.0528,0.0536,0.0529,0.0544,0.0547,0.055,0.055,0.0552,0.0555,0.0515,0.0515,0.0515,0,0,0.0439,0.0451,0.0454,0.0469,0.0478,0.0488,0.0492,0.0509,0.0519,0.0514,0.0537,0.0539,0.0529,0.0541,0.0546,0.054,0.0559,0.0551,0.0554,0.0552,0.0553,0.0557,0.056,0.0516,0.0516,0.0515,0,0,0.0443,0.0454,0.0461,0.0471,0.0491,0.0498,0.0506,0.0524,0.0535,0.0551,0.0552,0.0562,0.0566,0.0566,0.0563,0.058,0.0575,0.0583,0.0606,0.0608,0.0612,0.0615,0.0619,0.0622,0.0588,0.0588,0.0588,0,0.0441,0.0454,0.0464,0.0477,0.049,0.0504,0.0516,0.0526,0.0547,0.0559,0.0564,0.058,0.0575,0.0584,0.0594,0.0588,0.0591,0.0594,0.0614,0.0616,0.0619,0.0622,0.0624,0.059,0.059,0.059,0.059,0,0.0445,0.0462,0.0471,0.0491,0.0502,0.0518,0.0534,0.0551,0.057,0.0583,0.0607,0.0607,0.0619,0.0619,0.0612,0.063,0.0628,0.0617,0.0606,0.0625,0.0627,0.0629,0.0593,0.0593,0.0592,0.0592,0,0,0.0423,0.0466,0.0468,0.0486,0.0514,0.0524,0.0545,0.0567,0.0588,0.061,0.0638,0.0641,0.0657,0.0653,0.0654,0.0656,0.0678,0.0651,0.065,0.066,0.0692,0.0711,0.0714,0.0677,0.0678,0.0678,0.069,0,0.0424,0.0455,0.0473,0.0501,0.052,0.0541,0.0562,0.0585,0.0607,0.0639,0.0649,0.0676,0.0665,0.0685,0.0686,0.068,0.0684,0.0676,0.0667,0.0667,0.0685,0.0718,0.0679,0.0691,0.0692,0.0692,0.0692,0,0.0414,0.0443,0.0471,0.0521,0.0531,0.0549,0.0587,0.061,0.0649,0.067,0.0698,0.0714,0.0734,0.0721,0.0722,0.0723,0.0712,0.0701,0.0701,0.0704,0.0689,0.0665,0.0696,0.0695,0.0695,0.0695,0.0695,0,0.039,0.0438,0.0464,0.0478,0.0532,0.0552,0.0585,0.0623,0.065,0.0702,0.0728,0.0752,0.0775,0.0765,0.0762,0.0746,0.0762,0.0731,0.0734,0.0735,0.0694,0.069,0.0726,0.0726,0.0726,0.0726,0.0726,0,0.0377,0.0397,0.0461,0.0474,0.0515,0.0556,0.0597,0.0631,0.0683,0.0715,0.0754,0.0777,0.0789,0.0804,0.0783,0.0782,0.0781,0.0746,0.0743,0.0712,0.071,0.0696,0.0692,0.0727,0.0726,0.0726,0.0726,0,0.0334,0.0376,0.0409,0.0476,0.0504,0.0531,0.0609,0.0633,0.0693,0.0734,0.0759,0.0808,0.0835,0.0847,0.084,0.0815,0.0805,0.0801,0.0787,0.0781,0.0764,0.0762,0.0792,0.0793,0.0794,0.0794,0.0795,0,0.0317,0.0329,0.0401,0.0427,0.046,0.0517,0.0553,0.0629,0.0653,0.0739,0.075,0.0817,0.0842,0.085,0.0863,0.0857,0.0841,0.0833,0.0777,0.0779,0.0773,0.077,0.0767,0.0796,0.0796,0.0796,0.0796,0,0.0277,0.0298,0.0326,0.0389,0.0432,0.0479,0.054,0.0562,0.0641,0.0694,0.0738,0.0778,0.0821,0.0838,0.0869,0.0847,0.0837,0.0839,0.0836,0.0783,0.0784,0.0776,0.0773,0.0799,0.0799,0.0798,0.0798,0,0.0239,0.0246,0.0291,0.0344,0.0397,0.0438,0.0477,0.0526,0.0573,0.0669,0.0678,0.0751,0.0803,0.0835,0.0846,0.0861,0.083,0.0785,0.0784,0.0782,0.0779,0.0778,0.0797,0,0,0,0,0,0.0201,0.0215,0.0253,0.0313,0.0363,0.0404,0.0465,0.0502,0.0578,0.0594,0.0643,0.0683,0.0743,0.0778,0.079,0.084,0.0829,0.0851,0.0775,0.0813,0.081,0.0811,0,0,0,0,0,0,0.0178,0.0201,0.0234,0.0283,0.0321,0.0376,0.0416,0.0466,0.0483,0.0558,0.0589,0.0651,0.0709,0.0728,0.0777,0.0791,0.0734,0.0899,0.0899,0.0815,0.0812,0.081,0.0809,0,0,0,0,0]},{"header":{"parameterUnit":"m.s-1","parameterCategory":2,"la1":30.2991,"la2":30.254,"lo1":-89.0895,"lo2":-89.0444,"dy":0.0017,"dx":0.0017,"nx":28,"ny":28,"refTime":"2023-08-15T21:00:00:Z","depth":"4","parameterNumber":3,"parameterNumberName":"V-component_of_CURRENTS"},"data":[0,0,0,0,0,0,0,0,0,0,0,0,0,0,0,0,0,0,0,0,0,0,0,0,0,0,0,0,0,0,0,0,0,0,0,0,0,0,0,0,0,0,0,0,0,0,0,0,0,0,0,0,0,0,0,0,0,0,-0.0393,-0.0393,0,-0.0403,-0.0403,-0.0403,-0.044,-0.0441,-0.0442,-0.0443,-0.0498,-0.0499,-0.0499,0,0,0,0,0,0,0,0,0,0,0,0,0,-0.0397,-0.0397,-0.0393,-0.0393,-0.0393,-0.0403,-0.0403,-0.0403,-0.044,-0.0441,-0.0442,-0.0443,-0.0498,-0.0499,-0.0499,0,0,0,0,0,0,0,0,0,0,0,0,0,-0.0399,-0.0397,-0.0393,-0.0414,-0.0416,-0.0402,-0.0403,-0.0403,-0.044,-0.0441,-0.0442,-0.0444,-0.0498,-0.0499,-0.05,-0.0477,0,0,-0.0502,-0.0503,0,0,0,0,0,0,0,0,-0.0399,-0.0399,-0.041,-0.0412,-0.0414,-0.0422,-0.0424,-0.043,-0.0439,-0.043,-0.0443,-0.0444,-0.0477,-0.0479,-0.0476,-0.048,-0.0482,-0.0502,-0.0503,-0.0503,-0.0504,0,0,0,0,0,0,0,-0.0399,-0.0398,-0.0396,-0.041,-0.0413,-0.0419,-0.0421,-0.0425,-0.0445,-0.0431,-0.0433,-0.0435,-0.0478,-0.0475,-0.0478,-0.0483,-0.0502,-0.0503,-0.0504,-0.0504,-0.0566,-0.0567,0,0,0,0,0,0,-0.0398,-0.0398,-0.0396,-0.0396,-0.0411,-0.0418,-0.042,-0.0418,-0.0444,-0.045,-0.0434,-0.0437,-0.0473,-0.0477,-0.048,-0.053,-0.0503,-0.0504,-0.0505,-0.0565,-0.0567,-0.0568,0,0,0,0,0,0,-0.0398,-0.0397,-0.0395,-0.0398,-0.0399,-0.0417,-0.0413,-0.0417,-0.0429,-0.0447,-0.0453,-0.0445,-0.0474,-0.0479,-0.0503,-0.053,-0.0505,-0.0505,-0.0564,-0.0566,-0.0567,-0.0583,0,0,0,0,0,0,-0.0398,-0.0397,-0.0399,-0.0398,-0.0399,-0.0396,-0.0412,-0.0416,-0.0428,-0.0432,-0.0457,-0.0463,-0.0476,-0.0501,-0.0503,-0.0531,-0.0506,-0.0562,-0.0565,-0.0567,-0.0581,-0.0585,-0.0588,0,0,0,0,0,-0.0398,-0.0396,-0.0399,-0.0399,-0.0399,-0.0396,-0.0397,-0.0414,-0.0427,-0.043,-0.0454,-0.0463,-0.0517,-0.0502,-0.0505,-0.0533,-0.0561,-0.0564,-0.0566,-0.0579,-0.0584,-0.0588,0,0,0,0,0,0,-0.0408,-0.04,-0.0403,-0.0402,-0.0402,-0.0403,-0.0411,-0.0416,-0.0434,-0.0449,-0.0464,-0.0471,-0.0509,-0.0513,-0.0497,-0.0559,-0.0546,-0.0549,-0.0555,-0.0559,-0.0563,-0.0556,-0.0507,0,0,0,0,0,-0.0406,-0.0401,-0.0398,-0.0399,-0.04,-0.0404,-0.0408,-0.0418,-0.0431,-0.0441,-0.0463,-0.0491,-0.0517,-0.0531,-0.0554,-0.0572,-0.0565,-0.0598,-0.0601,-0.0604,-0.0602,-0.0618,-0.0622,-0.0576,-0.0576,-0.0576,0,0,-0.0408,-0.0407,-0.0404,-0.0401,-0.0404,-0.0399,-0.0411,-0.042,-0.0426,-0.0443,-0.0473,-0.0504,-0.0525,-0.056,-0.0578,-0.0569,-0.0611,-0.0607,-0.061,-0.0606,-0.0621,-0.0625,-0.0629,-0.0578,-0.0577,-0.0577,0,0,-0.0403,-0.0412,-0.0399,-0.04,-0.0406,-0.0409,-0.0412,-0.0423,-0.0442,-0.0463,-0.049,-0.0529,-0.0563,-0.0586,-0.06,-0.0631,-0.0632,-0.0655,-0.0664,-0.068,-0.0683,-0.0686,-0.0666,-0.0667,-0.0654,-0.0654,-0.0654,0,-0.0406,-0.0392,-0.0397,-0.039,-0.0392,-0.0412,-0.0403,-0.0418,-0.0442,-0.0458,-0.0481,-0.055,-0.0572,-0.0607,-0.0633,-0.0638,-0.064,-0.0643,-0.0683,-0.0686,-0.0689,-0.0667,-0.0668,-0.0655,-0.0655,-0.0655,-0.0655,0,-0.0383,-0.038,-0.0379,-0.0372,-0.0375,-0.0378,-0.0393,-0.0411,-0.0443,-0.0467,-0.0523,-0.0563,-0.0604,-0.0628,-0.0643,-0.0685,-0.0676,-0.0686,-0.0667,-0.0694,-0.067,-0.0671,-0.0657,-0.0656,-0.0656,-0.0656,0,0,-0.0366,-0.0359,-0.0361,-0.0354,-0.0369,-0.0365,-0.0381,-0.0397,-0.041,-0.0471,-0.0497,-0.0569,-0.0613,-0.0632,-0.0666,-0.0689,-0.0712,-0.0705,-0.0706,-0.0676,-0.0729,-0.0702,-0.07,-0.0738,-0.0739,-0.074,-0.0697,0,-0.0347,-0.0323,-0.033,-0.0319,-0.0308,-0.0332,-0.0342,-0.0368,-0.0406,-0.0443,-0.0511,-0.0561,-0.0608,-0.0642,-0.0677,-0.0702,-0.0718,-0.0721,-0.0715,-0.0714,-0.068,-0.0702,-0.0742,-0.0698,-0.0698,-0.0698,-0.0698,0,-0.032,-0.0307,-0.0288,-0.0285,-0.0284,-0.0288,-0.0305,-0.032,-0.0377,-0.041,-0.0479,-0.0539,-0.0599,-0.0636,-0.0689,-0.0694,-0.0719,-0.0734,-0.0733,-0.0703,-0.069,-0.0671,-0.0699,-0.0699,-0.0699,-0.0699,-0.0699,0,-0.0298,-0.0281,-0.0266,-0.0266,-0.0266,-0.027,-0.0281,-0.0319,-0.0332,-0.0402,-0.0419,-0.051,-0.0546,-0.0606,-0.0666,-0.0682,-0.0706,-0.0721,-0.071,-0.0706,-0.0734,-0.0731,-0.0755,-0.0755,-0.0755,-0.0755,-0.0755,0,-0.0275,-0.0265,-0.0256,-0.0251,-0.0239,-0.0252,-0.0261,-0.028,-0.0314,-0.0328,-0.0415,-0.0434,-0.0547,-0.0586,-0.0645,-0.0673,-0.0687,-0.0709,-0.0702,-0.0739,-0.0738,-0.0733,-0.0731,-0.0753,-0.0754,-0.0754,-0.0754,0,-0.0262,-0.0257,-0.0238,-0.0231,-0.0232,-0.023,-0.0242,-0.0241,-0.0272,-0.0286,-0.031,-0.0376,-0.0424,-0.051,-0.0582,-0.0621,-0.0662,-0.0669,-0.0675,-0.067,-0.0651,-0.0651,-0.0642,-0.064,-0.0639,-0.0639,-0.0638,0,-0.0253,-0.0242,-0.0228,-0.0215,-0.0217,-0.0215,-0.0211,-0.0232,-0.0227,-0.0243,-0.024,-0.0294,-0.0348,-0.04,-0.0508,-0.0592,-0.0618,-0.0623,-0.0675,-0.0649,-0.0644,-0.0645,-0.0646,-0.0636,-0.0636,-0.0636,-0.0636,0,-0.0236,-0.0239,-0.0222,-0.0195,-0.0185,-0.017,-0.0165,-0.0152,-0.0166,-0.0182,-0.0172,-0.0231,-0.0273,-0.037,-0.0438,-0.0509,-0.0616,-0.0614,-0.0617,-0.0666,-0.0643,-0.0639,-0.0641,-0.0632,-0.0633,-0.0633,-0.0633,0,-0.0231,-0.0214,-0.0194,-0.0171,-0.0153,-0.013,-0.0131,-0.011,-0.0109,-0.0117,-0.0111,-0.0176,-0.0227,-0.0324,-0.0389,-0.0457,-0.0483,-0.0504,-0.0513,-0.0518,-0.0516,-0.0471,-0.0399,0,0,0,0,0,-0.0221,-0.0196,-0.0166,-0.0139,-0.012,-0.0115,-0.0096,-0.0095,-0.0095,-0.0072,-0.009,-0.0133,-0.0226,-0.0275,-0.0335,-0.0392,-0.051,-0.0465,-0.0543,-0.0614,-0.0618,-0.0637,0,0,0,0,0,0,-0.0206,-0.0183,-0.0159,-0.012,-0.01,-0.008,-0.0069,-0.0067,-0.0057,-0.0063,-0.0111,-0.0138,-0.0237,-0.019,-0.0333,-0.0357,-0.0411,-0.0517,-0.0518,-0.0612,-0.0616,-0.0619,-0.064,0,0,0,0,0]}]]